Glendale Luke AFB, AZ

7:55 AM MST on June 29, 2017 (GMT -0700)
Luke Air Force Base

Weather History for KLUF - September, 2013

Change the Weather History Date:

Thursday, September 5, 2013

  Actual Average Record
Temperature  
Mean Temperature 95 °F -  
Max Temperature 108 °F 103 °F 115 °F (1945)
Min Temperature 82 °F 71 °F 59 °F (1985)
Cooling Degree Days 30    
Growing Degree Days 45 (Base 50)    
Moisture  
Dew Point 55 °F    
Average Humidity 27    
Maximum Humidity 50    
Minimum Humidity 12    
Precipitation  
Precipitation 0.00 in - - ()
Sea Level Pressure  
Sea Level Pressure 29.79 in    
Wind  
Wind Speed 6 mph (North)    
Max Wind Speed 13 mph    
Max Gust Speed 20 mph    
Visibility 10 miles    
Events      
Averages and records for this station are not official NWS values.
T = Trace of Precipitation, MM = Missing Value Source: NWS Daily Summary

Daily Weather History Graph

Daily Weather History Graph

Search for Another Location

Airport or City:

Trip Planner

Search our weather history database for the weather conditions in past years. The results will help you decide how hot, cold, wet, or windy it might be!

Date:

Astronomy

Sep. 05, 2013 Rise Set
Actual Time 6:06 AM MST 6:49 PM MST
Civil Twilight 5:41 AM MST 7:14 PM MST
Nautical Twilight 5:11 AM MST 7:43 PM MST
Astronomical Twilight 4:41 AM MST 8:14 PM MST
Moon 6:18 AM MST (9/5) 6:47 PM MST (9/5)
Length of Visible Light 13h 33m
Length of Day
12h 42m
New Moon, 0% of the Moon is Illuminated
Sep 5
New Moon
Sep 12
First Quarter
Sep 19
Full
Sep 26
Last Quarter
Oct 4
New

Hourly Weather History & Observations

Time (MST) Temp. Heat Index Dew Point Humidity Pressure Visibility Wind Dir Wind Speed Gust Speed Precip Events Conditions
12:58 AM 88.3 °F 89.2 °F 63.1 °F 43% 29.79 in 10.0 mi NNW 4.6 mph - N/A   Clear
1:58 AM 88.2 °F 88.7 °F 62.6 °F 42% 29.79 in 10.0 mi NNW 5.8 mph - N/A   Clear
2:58 AM 87.1 °F 87.5 °F 62.1 °F 43% 29.78 in 10.0 mi North 6.9 mph - N/A   Clear
3:58 AM 84.0 °F 84.7 °F 62.4 °F 48% 29.78 in 10.0 mi North 4.6 mph - N/A   Partly Cloudy
4:58 AM 84.2 °F 84.8 °F 61.7 °F 47% 29.79 in 10.0 mi NNW 8.1 mph - N/A   Partly Cloudy
5:58 AM 82.2 °F 83.0 °F 61.7 °F 50% 29.81 in 10.0 mi NNW 5.8 mph - N/A   Partly Cloudy
6:58 AM 84.6 °F 85.2 °F 62.2 °F 47% 29.83 in 10.0 mi NNW 2.3 mph - N/A   Clear
7:58 AM 91.2 °F 91.8 °F 62.2 °F 38% 29.85 in 10.0 mi NW 4.6 mph - N/A   Clear
8:58 AM 94.8 °F 94.2 °F 58.6 °F 30% 29.86 in 10.0 mi Variable 3.5 mph - N/A   Clear
9:58 AM 98.6 °F 97.6 °F 57.0 °F 25% 29.86 in 10.0 mi North 4.6 mph - N/A   Clear
10:58 AM 103.1 °F 101.6 °F 54.7 °F 20% 29.84 in 10.0 mi SE 5.8 mph - N/A   Clear
11:58 AM 105.8 °F - 51.6 °F 16% 29.82 in 10.0 mi SE 12.7 mph - N/A   Clear
12:58 PM 106.7 °F - 52.2 °F 16% 29.81 in 10.0 mi Variable 6.9 mph - N/A   Partly Cloudy
1:26 PM 107.6 °F - 51.8 °F 16% 29.84 in 10.0 mi SE 12.7 mph 19.6 mph N/A   Partly Cloudy
1:58 PM 107.6 °F - 49.6 °F 14% 29.78 in 10.0 mi SSE 8.1 mph - N/A   Clear
2:58 PM 108.0 °F - 46.8 °F 13% 29.75 in 10.0 mi SE 12.7 mph 17.3 mph N/A   Clear
3:58 PM 108.7 °F - 44.6 °F 12% 29.73 in 10.0 mi South 4.6 mph - N/A   Clear
4:58 PM 108.3 °F - 45.7 °F 12% 29.71 in 10.0 mi Variable 1.2 mph - N/A   Clear
5:58 PM 107.6 °F - 45.5 °F 12% 29.71 in 10.0 mi SE 3.5 mph - N/A   Clear
6:58 PM 105.8 °F - 46.2 °F 13% 29.71 in 10.0 mi SSE 4.6 mph - N/A   Clear
7:58 PM 104.9 °F - 48.9 °F 15% 29.73 in 10.0 mi SE 2.3 mph - N/A   Mostly Cloudy
8:58 PM 101.3 °F - 51.1 °F 18% 29.74 in 10.0 mi NNE 10.4 mph - N/A   Mostly Cloudy
9:58 PM 99.0 °F 96.9 °F 53.8 °F 22% 29.76 in 10.0 mi SW 4.6 mph - N/A   Mostly Cloudy
10:58 PM 97.5 °F 95.7 °F 55.4 °F 24% 29.78 in 10.0 mi SW 6.9 mph - N/A   Mostly Cloudy
11:58 PM 94.8 °F 93.4 °F 57.0 °F 28% 29.78 in 10.0 mi WSW 8.1 mph - N/A   Mostly Cloudy